User: anonymous   Login
Location: Hannover
(52.3723°N, 9.7339°E)
Time: 22:12:59
(UTC+01:00)
Language:

M-CUBED/EXP-1 PRIME - Orbit

View from above orbital plane
View from above orbital plane
View from above satellite
View from above satellite

Ground track
Ground track

The orbit data is extracted from the following two-line orbital elements,

1 37855U 11061F   20020.56989774 +.00000845 +00000-0 +49674-4 0  9997
2 37855 101.7269 032.1981 0172126 156.6972 204.2163 15.05944011448795
Epoch (UTC): 20 January 2020 13:40:39
Eccentricity: 0.0172126
inclination: 101.7269°
perigee height: 429 km
apogee height: 668 km
right ascension of ascending node: 32.1981°
argument of perigee: 156.6972°
revolutions per day: 15.05944011
mean anomaly at epoch: 204.2163°
orbit number at epoch: 44879

The dashed part of the orbit path shows where the satellite is in the earth's shadow,  

DLR